Weather History for K1F0 - April, 2014

Change the Weather History Date:

Sunday, April 13, 2014

  Actual Average (KADM) Record (KADM)
Temperature  
Mean Temperature 64 °F -  
Max Temperature 78 °F 70 °F 89 °F (2006)
Min Temperature 50 °F 50 °F 28 °F (1997)
Growing Degree Days 14 (Base 50)    
Moisture  
Dew Point 59 °F    
Average Humidity 74    
Maximum Humidity 100    
Minimum Humidity 44    
Precipitation  
Precipitation 0.05 in - - ()
Sea Level Pressure  
Sea Level Pressure 29.65 in    
Wind  
Wind Speed 14 mph (SSW)    
Max Wind Speed 23 mph    
Max Gust Speed 32 mph    
Visibility 10 miles    
Events Rain , Thunderstorm    
Averages and records for this station are not official NWS values.
T = Trace of Precipitation, MM = Missing Value Source: NWS Daily Summary

Daily Weather History Graph

Daily Weather History Graph

Search for Another Location

Airport or City:

Trip Planner

Search our weather history database for the weather conditions in past years. The results will help you decide how hot, cold, wet, or windy it might be!

Date:

Astronomy

Apr. 13, 2014 Rise Set
Actual Time 6:59 AM CDT 7:58 PM CDT
Civil Twilight 6:34 AM CDT 8:24 PM CDT
Nautical Twilight 6:03 AM CDT 8:54 PM CDT
Astronomical Twilight 5:32 AM CDT 9:26 PM CDT
Moon 6:40 PM CDT (4/13) 5:54 AM CDT (4/13)
Length of Visible Light 13h 50m
Length of Day
12h 58m
Waxing Gibbous, 97% of the Moon is Illuminated
Apr 13
Waxing Gibbous
Apr 15
Full
Apr 22
Last Quarter
Apr 29
New
May 6
First Quarter

Hourly Weather History & Observations

Time (CDT) Temp. Dew Point Humidity Pressure Visibility Wind Dir Wind Speed Gust Speed Precip Events Conditions
12:15 AM 71.6 °F 59.0 °F 64% 29.71 in 10.0 mi South 16.1 mph 25.3 mph N/A   Unknown
12:35 AM 71.6 °F 59.0 °F 64% 29.70 in 10.0 mi South 15.0 mph 24.2 mph N/A   Unknown
12:55 AM 71.6 °F 60.8 °F 69% 29.72 in 10.0 mi SSW 15.0 mph 24.2 mph N/A   Unknown
1:15 AM 71.6 °F 60.8 °F 69% 29.72 in 10.0 mi SSW 16.1 mph 24.2 mph N/A   Unknown
1:35 AM 71.6 °F 60.8 °F 69% 29.71 in 10.0 mi South 16.1 mph 25.3 mph N/A   Unknown
1:55 AM 69.8 °F 60.8 °F 73% 29.71 in 10.0 mi SSW 11.5 mph 26.5 mph N/A   Unknown
2:15 AM 69.8 °F 60.8 °F 73% 29.71 in 10.0 mi SSW 12.7 mph 25.3 mph N/A   Unknown
2:35 AM 69.8 °F 59.0 °F 68% 29.70 in 10.0 mi SSW 17.3 mph 28.8 mph N/A   Unknown
2:55 AM 69.8 °F 59.0 °F 68% 29.72 in 10.0 mi SSW 12.7 mph 23.0 mph N/A   Unknown
3:15 AM 69.8 °F 59.0 °F 68% 29.71 in 10.0 mi South 16.1 mph 23.0 mph N/A Rain Light Rain
3:55 AM 69.8 °F 59.0 °F 68% 29.71 in 10.0 mi South 11.5 mph 23.0 mph N/A   Unknown
4:15 AM 69.8 °F 59.0 °F 68% 29.70 in 10.0 mi South 16.1 mph 21.9 mph N/A   Unknown
4:35 AM 68.0 °F 59.0 °F 73% 29.70 in 10.0 mi South 11.5 mph 18.4 mph N/A   Unknown
5:15 AM 68.0 °F 60.8 °F 78% 29.69 in 10.0 mi South 8.1 mph 23.0 mph N/A Rain Light Rain
5:35 AM 68.0 °F 62.6 °F 83% 29.70 in 10.0 mi SSW 6.9 mph - N/A Rain Light Rain
5:55 AM 66.2 °F 60.8 °F 83% 29.69 in 10.0 mi SSW 8.1 mph - N/A   Unknown
6:15 AM 68.0 °F 60.8 °F 78% 29.70 in 10.0 mi SSW 8.1 mph - N/A Rain Light Rain
6:35 AM 66.2 °F 62.6 °F 88% 29.70 in 10.0 mi SSW 11.5 mph 17.3 mph N/A Rain Rain
6:55 AM 66.2 °F 62.6 °F 88% 29.68 in 10.0 mi South 12.7 mph 19.6 mph N/A   Unknown
7:15 AM 64.4 °F 60.8 °F 88% 29.67 in 10.0 mi South 12.7 mph 21.9 mph N/A Rain Light Rain
7:35 AM 64.4 °F 60.8 °F 88% 29.69 in 7.0 mi South 11.5 mph 18.4 mph 0.01 in Rain Light Rain
7:55 AM 64.4 °F 62.6 °F 94% 29.66 in 5.0 mi South 21.9 mph 28.8 mph 0.03 in Rain , Thunderstorm Light Thunderstorms and Rain
8:15 AM 62.6 °F 62.6 °F 100% 29.67 in 10.0 mi South 12.7 mph 19.6 mph N/A   Unknown
8:35 AM 62.6 °F 60.8 °F 94% 29.66 in 10.0 mi South 17.3 mph 24.2 mph N/A   Unknown
8:55 AM 62.6 °F 62.6 °F 100% 29.66 in 10.0 mi South 9.2 mph - N/A   Unknown
9:15 AM 62.6 °F 62.6 °F 100% 29.67 in 10.0 mi South 9.2 mph 19.6 mph N/A   Unknown
9:35 AM 64.4 °F 62.6 °F 94% 29.67 in 10.0 mi South 9.2 mph 17.3 mph N/A   Unknown
9:55 AM 64.4 °F 62.6 °F 94% 29.69 in 10.0 mi SSW 12.7 mph 25.3 mph N/A   Unknown
10:15 AM 66.2 °F 62.6 °F 88% 29.69 in 10.0 mi SSW 13.8 mph 24.2 mph N/A   Unknown
10:35 AM 68.0 °F 62.6 °F 83% 29.68 in 10.0 mi SSW 15.0 mph 23.0 mph N/A   Unknown
10:55 AM 68.0 °F 62.6 °F 83% 29.68 in 10.0 mi SSW 12.7 mph 21.9 mph N/A   Unknown
11:15 AM 68.0 °F 62.6 °F 83% 29.67 in 10.0 mi SSW 15.0 mph 23.0 mph N/A   Unknown
11:35 AM 68.0 °F 62.6 °F 83% 29.65 in 10.0 mi South 16.1 mph 26.5 mph N/A   Unknown
11:55 AM 68.0 °F 60.8 °F 78% 29.63 in 10.0 mi SSW 16.1 mph 31.1 mph N/A   Unknown
12:15 PM 69.8 °F 60.8 °F 73% 29.65 in 10.0 mi SSW 19.6 mph 28.8 mph N/A   Unknown
12:35 PM 69.8 °F 60.8 °F 73% 29.64 in 10.0 mi SSW 15.0 mph 26.5 mph N/A   Unknown
12:55 PM 69.8 °F 60.8 °F 73% 29.63 in 10.0 mi SSW 17.3 mph 28.8 mph N/A   Unknown
1:15 PM 69.8 °F 60.8 °F 73% 29.62 in 10.0 mi SSW 11.5 mph 25.3 mph N/A   Unknown
1:35 PM 69.8 °F 60.8 °F 73% 29.61 in 10.0 mi SSW 16.1 mph 24.2 mph N/A   Unknown
1:55 PM 71.6 °F 60.8 °F 69% 29.60 in 10.0 mi SSW 16.1 mph 24.2 mph N/A   Unknown
2:15 PM 73.4 °F 60.8 °F 65% 29.59 in 10.0 mi SSW 13.8 mph 21.9 mph N/A   Unknown
2:35 PM 75.2 °F 59.0 °F 57% 29.59 in 10.0 mi SW 15.0 mph 25.3 mph N/A   Unknown
2:55 PM 77.0 °F 57.2 °F 50% 29.58 in 10.0 mi SSW 15.0 mph 23.0 mph N/A   Unknown
3:15 PM 78.8 °F 55.4 °F 44% 29.57 in 10.0 mi SW 18.4 mph 26.5 mph N/A   Unknown
3:35 PM 77.0 °F 57.2 °F 50% 29.56 in 10.0 mi SSW 23.0 mph 32.2 mph N/A   Unknown
3:55 PM 77.0 °F 59.0 °F 54% 29.55 in 10.0 mi SSW 20.7 mph 29.9 mph N/A   Unknown
4:15 PM 77.0 °F 59.0 °F 54% 29.54 in 10.0 mi SSW 16.1 mph 28.8 mph N/A   Unknown
4:35 PM 77.0 °F 60.8 °F 57% 29.54 in 10.0 mi SSW 17.3 mph 28.8 mph N/A   Unknown
4:55 PM 77.0 °F 60.8 °F 57% 29.53 in 10.0 mi SSW 21.9 mph 31.1 mph N/A   Unknown
5:15 PM 75.2 °F 62.6 °F 65% 29.53 in 10.0 mi SSW 18.4 mph 29.9 mph N/A   Unknown
5:35 PM 75.2 °F 62.6 °F 65% 29.51 in 10.0 mi South 19.6 mph 26.5 mph N/A   Unknown
5:55 PM 73.4 °F 62.6 °F 69% 29.50 in 10.0 mi SSW 16.1 mph 24.2 mph N/A   Unknown
6:15 PM 75.2 °F 59.0 °F 57% 29.48 in 10.0 mi SSW 15.0 mph 24.2 mph N/A   Unknown
6:35 PM 75.2 °F 60.8 °F 61% 29.49 in 10.0 mi SSW 15.0 mph 25.3 mph N/A   Unknown
6:55 PM 73.4 °F 60.8 °F 65% 29.51 in 10.0 mi South 15.0 mph 24.2 mph N/A Thunderstorm Unknown
7:15 PM 73.4 °F 60.8 °F 65% 29.51 in 10.0 mi South 11.5 mph 18.4 mph N/A Thunderstorm Unknown
7:35 PM 68.0 °F 53.6 °F 60% 29.61 in 10.0 mi ENE 12.7 mph 21.9 mph N/A Thunderstorm Thunderstorm
7:55 PM 66.2 °F 59.0 °F 78% 29.61 in 7.0 mi Calm Calm - 0.02 in Rain , Thunderstorm Light Thunderstorms and Rain
8:15 PM 62.6 °F 59.0 °F 88% 29.62 in 10.0 mi NNE 8.1 mph - N/A Thunderstorm Unknown
8:35 PM 62.6 °F 57.2 °F 82% 29.65 in 10.0 mi NE 9.2 mph - N/A Thunderstorm Thunderstorm
8:55 PM 62.6 °F 55.4 °F 77% 29.66 in 10.0 mi North 9.2 mph - N/A Thunderstorm Unknown
9:15 PM 60.8 °F 51.8 °F 72% 29.68 in 10.0 mi North 8.1 mph 19.6 mph N/A   Unknown
9:35 PM 57.2 °F 48.2 °F 72% 29.70 in 10.0 mi North 12.7 mph 20.7 mph N/A   Unknown
9:55 PM 55.4 °F 46.4 °F 72% 29.72 in 10.0 mi North 10.4 mph 17.3 mph N/A   Unknown
10:15 PM 53.6 °F 44.6 °F 72% 29.74 in 10.0 mi North 6.9 mph 18.4 mph N/A   Unknown
10:35 PM 51.8 °F 44.6 °F 76% 29.75 in 10.0 mi NNE 10.4 mph 19.6 mph N/A   Unknown
10:55 PM 51.8 °F 44.6 °F 76% 29.76 in 10.0 mi NNE 12.7 mph 19.6 mph N/A   Unknown
11:35 PM 51.8 °F 44.6 °F 76% 29.78 in 10.0 mi NNE 9.2 mph 18.4 mph N/A   Unknown
11:55 PM 50.0 °F 42.8 °F 76% 29.79 in 10.0 mi NNE 10.4 mph 17.3 mph N/A   Unknown